User: anonymous   Login
Location: Unspecified
(0.0000°N, 0.0000°E)
Time: 09:32:11
(UTC+02:00)
Language:

Cosmos 540 Rocket - Orbit

View from above orbital plane
View from above orbital plane
View from above satellite
View from above satellite

Ground track
Ground track

The orbit data is extracted from the following two-line orbital elements,

1 06324U 72104B   18115.83696459  .00000061  00000-0  26006-4 0  9990
2 06324  74.0768 246.5464 0010007 302.7737  57.2455 14.43409374380689
Epoch (UTC): 25 April 2018 20:05:13
Eccentricity: 0.0010007
inclination: 74.0768°
perigee height: 740 km
apogee height: 754 km
right ascension of ascending node: 246.5464°
argument of perigee: 302.7737°
revolutions per day: 14.43409374
mean anomaly at epoch: 57.2455°
orbit number at epoch: 38068

The dashed part of the orbit path shows where the satellite is in the earth's shadow,  

DLR